Flag for Austria Weather past 2 weeks in Traiskirchen, Lower Austria, Austria

Now
66 °F

Passing clouds.


Feels Like: 66 °F
Forecast: 65 / 75 °F
Wind: 5 mph from Southeast

Location: Wien / Schwechat-Flughafen

Current Time: Jul 30, 2014 at 6:00:16 AM

Latest Report: Jul 30, 2014 at 4:00 AM


Visibility: 14 mi

Pressure: 29.72 "Hg

Humidity: 90%

Dew point: 63 °F

Location of TraiskirchenLocation

Historic Weather in Traiskirchen — Graph

°F

Traiskirchen temperature yesterday

Maximum temperature yesterday: 78 °F (at 4:00 PM)
Minimum temperature yesterday: 65 °F (at 4:00 AM)
Average temperature yesterday: 71 °F

Past Weeks' High & Low Weather Summary

 TemperatureHumidityPressure
High89 °F (Jul 20, 4:00 PM)98% (Jul 29, 6:00 AM)30.12 "Hg (Jul 29, 6:00 AM)
Low58 °F (Jul 26, 5:00 AM)29% (Jul 17, 4:00 PM)29.69 "Hg (Jul 21, 4:00 PM)
Average73 °F70%29.92 "Hg
* Reported Jul 15 4:00 AM — Jul 30 4:00 AM, Traiskirchen, Weather by CustomWeather, © 2014

Note: Actual official high and low records may vary slightly from our data, if they occured in-between our weather recording intervals... More about our weather records

Advertising

Traiskirchen weather history for previous 24 hours

 ConditionsComfort  
Time TempWeatherWind HumidityBarometerVisibility
4:00 AM
Jul 30
66 °FPassing clouds.5 mph90%29.72 "Hg14 mi
3:00 AM67 °FPassing clouds.6 mph90%29.72 "Hg16 mi
2:00 AM67 °FPassing clouds.6 mph88%29.72 "Hg22 mi
1:00 AM68 °FPassing clouds.6 mph88%29.72 "Hg19 mi
12:00 AM70 °FPassing clouds.6 mph87%29.72 "Hg17 mi
11:00 PM
Jul 29
71 °FPassing clouds.7 mph82%29.72 "Hg19 mi
10:00 PM72 °FPassing clouds.6 mph78%29.72 "Hg19 mi
9:00 PM74 °FPassing clouds.6 mph75%29.70 "Hg18 mi
8:00 PM76 °FPartly sunny.6 mph69%29.70 "Hg19 mi
7:00 PM78 °FPartly sunny.7 mph66%29.71 "Hg19 mi
6:00 PM77 °FOvercast.6 mph66%29.71 "Hg12 mi
5:00 PM75 °FOvercast.6 mph74%29.73 "Hg12 mi
4:00 PM78 °FPartly sunny.7 mph66%29.74 "Hg11 mi
3:00 PM74 °FOvercast.8 mph76%29.76 "Hg9 mi
2:00 PM77 °FOvercast.7 mph64%29.76 "Hg10 mi
1:00 PM76 °FOvercast.7 mph67%29.77 "Hg11 mi
12:00 PM75 °FOvercast.7 mph73%29.78 "Hg9 mi
11:00 AM72 °FOvercast.6 mph82%29.79 "Hg7 mi
10:00 AM70 °FLow clouds.6 mph86%29.79 "Hg7 mi
9:00 AM69 °FLow clouds.5 mph91%29.79 "Hg6 mi
8:00 AM68 °FLow clouds.6 mph92%29.79 "Hg4 mi
7:00 AM66 °FLow clouds.5 mph97%29.79 "Hg2 mi
6:00 AM65 °FLow clouds.5 mph98%29.79 "Hg1 mi
Weather by CustomWeather, © 2014

See weather overviewHow to use our weather pages